Location: Roland
(31.1349°N, 85.4372°W)
Time: 12:40:48
(UTC+00:00)

Explorer 11/Cluster Stage 4 - Pass Details

Date: 26 April 2021
Orbit: 467 x 1257 km, 28.8° (Epoch: 15 May)

Event Time Altitude Azimuth Distance (km) Brightness Sun altitude
Exits shadow 10:36:10 - 252° (WSW) 1,858 7.8 -6.0°
Reaches altitude 10° 10:36:40 10° 250° (WSW) 1,652 7.6 -5.9°
Maximum altitude 10:40:16 53° 173° (S) 576 5.9 -5.2°
Drops below altitude 10° 10:43:48 10° 96° (E) 1,619 9.5 -4.5°
Sets 10:46:03 0° 91° (E) 2,531 10.9 -4.0°
